Location: Crab Orchard
(37.7292°N, 88.8042°W)
Time: 05:59:32
(UTC+00:00)

Cosmos 2219 Rocket - Pass Details

Date: 08 December 2019
Orbit: 826 x 848 km, 71.0° (Epoch: 19 January)

Event Time Altitude Azimuth Distance (km) Brightness Sun altitude
Rises 23:17:48 0° 220° (SW) 3,356 6.6 -8.2°
Reaches altitude 10° 23:20:21 10° 228° (SW) 2,429 5.9 -8.7°
Maximum altitude 23:25:35 42° 298° (WNW) 1,183 3.4 -9.7°
Drops below altitude 10° 23:30:54 10° 8° (N) 2,456 4.3 -10.7°
Sets 23:33:30 0° 16° (NNE) 3,397 5.0 -11.1°
